NOAA 16 DEB, 41429

Orbit data source: Space-Track

NOAA 16 DEB, 41429 is space debris in SSO originally from a launch on Thu, 21 Sep 2000 UTC launched from the Air Force Western Test Range (AFWTR). Debris objects in space refer to the collection of defunct objects orbiting the Earth. Examples of debris include non-operational satellites, rocket bodies, and fragments generated from explosions, collisions, or faulty payload assembly.

Loading next visibility...
Identifier
41429, 2000-055LJ
Orbit
SSO
Country
Flag of USUS
Related business
Manufacturer
Unknown
Mission
Spacecraft
Bus & Motor
Unknown
Mass
Unknown
Launch date (UTC)
2000-09-21 (25 years ago)
Launch vehicle
Unknown
Launch site
Air Force Western Test Range (AFWTR)
Object type
Payload
Rocket body
Debris
Shape & HBR
Unknown shape, 0.1 m
Radar Cross Section
Small (<0.1 m²)

Expand to show TLE details & history
Last TLE update: 1 day ago

TLE from 1 day ago
0 NOAA 16 DEB
1 41429U 00055LJ  25340.19681780  .00007336  00000-0  29376-2 0  9992
2 41429  98.7185  61.7223 0018039 185.6983 174.3996 14.28511771505525
Epoch: 2025-12-06T04:43Z
TLE epoch observation values (Epoch: 2025-12-06T04:43:25.057Z)
Latitude
-0.00001°
Longitude
-84.36012°
Altitude
812.519 km
Speed
7.44 km/s
True Right ascension
04h 06m 53s
True Declination
0° 00' 00"
Sunlit
Object was in full shadow at epoch
Visualization orbit readout
Latitude
Unknown
Longitude
Unknown
Altitude
Unknown
Speed
Unknown
Apparent Right ascension
Unknown
Apparent Declination
Unknown
Sunlit
N/A
Visualization observer readout
Local Sidereal Time
03:45:43
Azimuth
Unknown
Elevation
Unknown
Doppler factor
Unknown
Orbital elements
Apogee altitude
806.795 km
Perigee altitude
780.92 km
Semi-major axis
7,171.994 km
Eccentricity
0.0018
Inclination
98.7185°
RAAN
61.7223°
Arg. of periapsis
185.6983°
True anomaly
174.41973°
Mean anomaly
174.3996°
Eccentric anomaly
174.40967°
Mean motion
3.57341 °/min
Orbital period
100.74 mins
BSTAR
0.0029376
Loading maneuver chart data...
Computing Atmospheric mass density...
Loading historical data...
Loading historical data...
Loading historical data...
Loading historical data...
Loading historical data...
Loading historical data...
Loading historical data...

Documentation

Showing up to 5 results
|